Regional Weather Roundup
Issued by NWS Little Rock, AR

Home | Current Version | Previous Version | Text Only | Print | Product List | Glossary Off
Versions: 1 2 3 4 5 6 7 8 9 10 11 12 13 14 15 16 17 18 19 20 21 22 23 24 25 26 27 28 29 30 31 32 33 34 35 36 37 38 39 40 41 42 43 44 45 46 47 48 49 50

000
ASUS44 KLZK 010805
RWRLZK

WEATHER ROUNDUP FOR ARKANSAS
NATIONAL WEATHER SERVICE LITTLE ROCK AR
300 AM CDT TUE SEP 01 2015

NOTE: "FAIR" INDICATES FEW OR NO CLOUDS BELOW 12,000 FEET WITH NO
SIGNIFICANT WEATHER AND/OR OBSTRUCTIONS TO VISIBILITY.

ARZ001-003-010-029-010900-
NORTHWEST ARKANSAS

CITY           SKY/WX    TMP DP  RH WIND       PRES   REMARKS
FAYETTEVILLE   CLEAR     66  66 100 MISG      30.08S FOG
FORT SMITH     CLEAR     73  67  81 NE6       30.04S
BENTONVILLE    CLEAR     70  63  78 SE6       30.08S
ROGERS         CLEAR     71  66  84 SE6       30.09S
SILOAM SPGS    CLEAR     72  61  68 SE8       30.05F
HIGHFILL       CLEAR     70  66  87 S5        30.07S
$$

ARZ004-005-016-010900-
NORTH CENTRAL ARKANSAS

CITY           SKY/WX    TMP DP  RH WIND       PRES   REMARKS
BATESVILLE     CLEAR     70  70 100 CALM      30.07S
FLIPPIN        CLEAR     68  63  83 CALM      30.06R
MTN HOME       CLEAR     68  67  96 CALM      30.07S
$$

ARZ040-041-010900-
WEST CENTRAL ARKANSAS

CITY           SKY/WX    TMP DP  RH WIND       PRES   REMARKS
MENA           CLEAR     68  64  88 CALM      30.08R
MOUNT IDA      CLEAR     69  67  93 CALM      30.04S FOG
$$

ARZ009-017-025-026-028-010900-
NORTHEAST ARKANSAS

CITY           SKY/WX    TMP DP  RH WIND       PRES   REMARKS
JONESBORO      CLEAR     67  67 100 NE3       30.07S
NEWPORT        CLEAR     72  71  96 CALM      30.08R
WALNUT RIDGE   CLEAR     70  64  83 CALM      30.07S
BLYTHEVILLE    CLEAR     72  69  90 S3        30.07S
$$

ARZ022-023-033-042-044-010900-
CENTRAL ARKANSAS

CITY           SKY/WX    TMP DP  RH WIND       PRES   REMARKS
LITTLE ROCK    MOCLDY    76  69  79 E3        30.05R
N LITTLE ROCK    N/A     76  71  83 SE5       30.05R
JACKSONVILLE   PTCLDY    71  68  90 CALM      30.05R
SEARCY         CLEAR     71  69  93 CALM      30.07S
HOT SPRINGS    CLEAR     70  68  93 S3        30.05S
RUSSELLVILLE   CLEAR     69  68  96 CALM      30.05R FOG
$$

ARZ036-010900-
EAST ARKANSAS

CITY           SKY/WX    TMP DP  RH WIND       PRES   REMARKS
WEST MEMPHIS   CLEAR     72  70  93 S3        30.06R
$$

ARZ050-053-066-070-073-010900-
SOUTHWEST ARKANSAS

CITY           SKY/WX    TMP DP  RH WIND       PRES   REMARKS
ARKADELPHIA    FAIR      69  69 100 CALM      30.05R
CAMDEN         MOCLDY    72  66  83 CALM      30.05R
TEXARKANA      CLEAR     73  66  78 S6        30.05R
EL DORADO      CLOUDY    70  64  81 CALM      30.06R
DE QUEEN       CLEAR     66  65  96 W3        30.03S FOG
$$

ARZ056-057-069-010900-
SOUTHEAST ARKANSAS

CITY           SKY/WX    TMP DP  RH WIND       PRES   REMARKS
PINE BLUFF     PTCLDY    73  69  87 CALM      30.05R
STUTTGART      CLEAR     75  66  73 SE7       30.05S
MONTICELLO     PTCLDY    71  69  93 CALM      30.05R

$$





USA.gov is the U.S. government's official web portal to all federal, state and local government web resources and services.